Lexington Weather

Lexington, Massachusetts, USA

34°F
4/16/2021 10:23am 
  • Lexington Conditions: Snow, Fog, Overcast
  • Temperature: 34.0°F / 1.1°CColder 0.2°F than last hour.
  • Dew Point: 32.7°FDecreased 0.2°Fsince last hour.
  • Relative Humidity: 95
  • Wind: Calm, 10-min avg: Calm, gust: None
  • Barometer: 29.49 in Steady
  • Visibility: ½ mile
  • Snow Today: 1.3 in
  •   

Regional Weather Roundup
for Boston / Norton, MA

        
000
ASUS41 KBOX 120204
RWRBOX

REGIONAL WEATHER ROUNDUP
NATIONAL WEATHER SERVICE BOSTON/NORTON MA
1000 PM EDT SUN APR 11 2021

NOTE:  "FAIR" INDICATES FEW OR NO CLOUDS BELOW 12,000 FEET WITH NO 
SIGNIFICANT WEATHER AND/OR OBSTRUCTIONS TO VISIBILITY.

MAZALL-120300-
EASTERN MASSACHUSETTS
  
CITY           SKY/WX    TMP DP  RH WIND       PRES   REMARKS
BOSTON         CLOUDY    45  40  82 E10       29.80F                  
BEVERLY        CLOUDY    43  40  89 CALM      29.79F                  
LAWRENCE       CLOUDY    43  39  86 NE6       29.82S                  
BEDFORD        CLOUDY    44  39  82 NE5       29.79S                  
BLUE HILL        N/A     40  40 100 NE10G16   29.76F                  
NORWOOD        CLOUDY    45  40  82 NE6       29.79F                  
MARSHFIELD     CLOUDY    45  43  93 NE7G13    29.79F                  
PLYMOUTH       CLOUDY    43  41  93 NE8       29.77F                  
TAUNTON        CLOUDY    44  40  85 VRB5      29.77F                  
NEW BEDFORD    CLOUDY    44  41  89 NE14      29.75F                  
$$

MAZALL-120300-
CAPE COD AND THE ISLANDS
  
CITY           SKY/WX    TMP DP  RH WIND       PRES   REMARKS
FALMOUTH       CLOUDY    43  41  93 NE17      29.75R                  
HYANNIS        CLOUDY    45  40  82 NE10      29.74F                  
CHATHAM        CLOUDY    44  40  85 NE12      29.77F                  
PROVINCETOWN   CLOUDY    43  41  93 E9        29.79F                  
NANTUCKET      MOCLDY    44  41  89 NE16G22   29.74R                  
MARTHAS VNYRD  CLOUDY    46  42  86 NE15G22   29.74R                  
$$
 
MAZALL-120300-
CENTRAL AND WESTERN MASSACHUSETTS
  
CITY           SKY/WX    TMP DP  RH WIND       PRES   REMARKS
WORCESTER      CLOUDY    43  38  82 NE9       29.76S                  
FITCHBURG      CLOUDY    44  41  89 NE5       29.80S                  
ORANGE         LGT RAIN  46  40  79 NE7       29.78S                  
SPRINGFIELD    LGT RAIN  47  42  82 NE7       29.74S                  
WESTFIELD      LGT RAIN  47  43  86 NE7       29.75R                  
NORTH ADAMS    CLOUDY    50  40  68 E10G21    29.73R                  
PITTSFIELD     CLOUDY    46  40  79 E9        29.70R                  
$$
 
RIZALL-120300-
RHODE ISLAND
  
CITY           SKY/WX    TMP DP  RH WIND       PRES   REMARKS
PROVIDENCE     LGT RAIN  44  41  89 NE14      29.76F                  
NEWPORT        CLOUDY    44  41  89 NE10      29.74S                  
BLOCK ISLAND   CLOUDY    44  41  89 NE21G29   29.72R                  
SMITHFIELD     CLOUDY    42  42 100 NE9       29.76F                  
WESTERLY       CLOUDY    44  41  89 NE8       29.72R                  
$$
 
CTZALL-120300-
CONNECTICUT
  
CITY           SKY/WX    TMP DP  RH WIND       PRES   REMARKS
BRADLEY INTL   LGT RAIN  49  40  71 NE8       29.74S                  
HARTFORD       LGT RAIN  49  41  74 NE9       29.74S                  
BRIDGEPORT     LGT RAIN  50  46  86 E16       29.69S                  
DANBURY        CLOUDY    50  44  80 E9        29.69R                  
GROTON         LGT RAIN  47  42  83 NE17      29.71R                  
NEW HAVEN      CLOUDY    51  44  77 NE9G17    29.70R                  
CHESTER        FAIR      48  43  81 NE14      29.70F                  
MERIDEN        CLOUDY    49  40  71 NE9       29.71S                  
WILLIMANTIC    CLOUDY    46  42  86 NE8       29.74R                  
OXFORD         LGT RAIN  46  44  93 E14G21    29.70S                  
$$

MEZ002-015-021-024-NHZ003-005-008-011-012-014-VTZ005-008-120300-
NORTHERN NEW ENGLAND
  
CITY           SKY/WX    TMP DP  RH WIND       PRES   REMARKS
PORTLAND ME    MOCLDY    39  37  92 W5        29.81S                  
BANGOR ME      MOCLDY    53  35  50 N13       29.81R                  
CONCORD NH     CLOUDY    45  36  70 SE3       29.81R                  
MANCHESTER NH  CLOUDY    45  38  76 E3        29.79S                  
NASHUA NH      CLOUDY    44  42  93 E5        29.81S                  
PORTSMOUTH NH  CLOUDY    41  39  90 CALM      29.82S                  
JAFFREY NH     CLOUDY    45  37  73 CALM      29.78S                  
KEENE NH       CLOUDY    48  39  71 N5        29.78S                  
BURLINGTON VT  CLOUDY    59  41  51 SE7       29.69R                  
MT. WASHINGTON PTCLDY    28  23  80 E23G31      N/A  WCI  14          
$$

NYZ052-076-120300-
EASTERN NEW YORK
  
CITY           SKY/WX    TMP DP  RH WIND       PRES   REMARKS
ALBANY         DRIZZLE   49  45  86 S5        29.69R                  
NEW YORK CITY  CLOUDY    49  45  86 E13       29.65R                  
$$
 
ANZALL-120300-
MARINE OBSERVATIONS
  
STATION/POSITION TIME  TEMP    WIND        PRES    VSBY  WAVE
                       AIR SEA DIR/SP/G                  HT/PER
                 (UTC) (F)     (DEG/KT/KT) (MB)    (MI)  (FT/S)
BOSTON BUOY      0140   43 44   70/ 10/ 12 1009.4F
BUZZARDS BAY     0100           40/ 23/ 25 1007.7R
NANTUCKET SOUND  0140      46                N/A
MASS BAY-STELLWA NOT AVBL
ISLE OF SHOALS   0100   43      80/  5/  6 1009.0R
S OF BLOCK IS    0126      45                N/A           5/ 5
$$

......................KEY.........................
  SKY/WX - SKY CONDITION/PRESENT WEATHER
  TMP    - TEMPERATURE IN FAHRENHEIT
  DWPT   - DEWPOINT IN FAHRENHEIT
  RH     - RELATIVE HUMIDITY IN PERCENT
  WIND   - DIRECTION AND SPEED IN MPH
  PRES   - MEAN SEA LEVEL PRESSURE IN INCHES OF HG
  WCI    - WIND CHILL INDEX
  VSB    - VISIBILITY IN MILES
  HX     - HEAT INDEX
  TC     - TEMPERATURE IN CELSIUS
  VRB    - VARIABLE WIND DIRECTION
  N/A    - NOT AVAILABLE
  
      

Other recent Regional Weather Roundups

Fri Apr 16, 10:05am

Fri Apr 16, 9:04am

Fri Apr 16, 8:04am

Fri Apr 16, 7:04am

Fri Apr 16, 6:04am

Fri Apr 16, 5:04am

Fri Apr 16, 4:04am

Fri Apr 16, 3:04am

Fri Apr 16, 2:04am

Fri Apr 16, 1:04am

Fri Apr 16, 12:04am

Thu Apr 15, 11:05pm

Thu Apr 15, 10:04pm

Thu Apr 15, 9:04pm

Thu Apr 15, 8:04pm

Thu Apr 15, 7:05pm

Thu Apr 15, 6:04pm

Thu Apr 15, 5:05pm

Thu Apr 15, 4:04pm

Thu Apr 15, 3:05pm

Thu Apr 15, 2:04pm

Thu Apr 15, 1:05pm

Thu Apr 15, 12:04pm

Thu Apr 15, 11:04am

Thu Apr 15, 10:05am

Thu Apr 15, 9:04am

Thu Apr 15, 8:04am

Thu Apr 15, 7:04am

Thu Apr 15, 6:04am

Thu Apr 15, 5:04am

Thu Apr 15, 4:04am

Thu Apr 15, 3:04am

Thu Apr 15, 2:04am

Thu Apr 15, 1:04am

Thu Apr 15, 12:04am

Wed Apr 14, 11:04pm

Wed Apr 14, 10:04pm

Wed Apr 14, 9:04pm

Wed Apr 14, 8:04pm

Wed Apr 14, 7:04pm

Wed Apr 14, 6:04pm

Wed Apr 14, 5:05pm

Wed Apr 14, 4:04pm

Wed Apr 14, 3:05pm

Wed Apr 14, 2:04pm

Wed Apr 14, 1:05pm

Wed Apr 14, 12:04pm

Wed Apr 14, 11:04am

Wed Apr 14, 10:04am

Wed Apr 14, 9:04am

Wed Apr 14, 8:04am

Wed Apr 14, 7:04am

Wed Apr 14, 6:04am

Wed Apr 14, 5:04am

Wed Apr 14, 4:04am

Wed Apr 14, 3:04am

Wed Apr 14, 2:04am

Wed Apr 14, 1:04am

Wed Apr 14, 12:04am

Tue Apr 13, 11:04pm

Tue Apr 13, 10:05pm

Tue Apr 13, 9:05pm

Tue Apr 13, 8:05pm

Tue Apr 13, 7:04pm

Tue Apr 13, 6:04pm

Tue Apr 13, 5:05pm

Tue Apr 13, 4:04pm

Tue Apr 13, 3:04pm

Tue Apr 13, 2:05pm

Tue Apr 13, 1:04pm

Tue Apr 13, 12:05pm

Tue Apr 13, 11:05am

Tue Apr 13, 10:04am

Tue Apr 13, 9:04am

Tue Apr 13, 8:04am

Tue Apr 13, 7:04am

Tue Apr 13, 6:04am

Tue Apr 13, 5:04am

Tue Apr 13, 4:04am

Tue Apr 13, 3:04am

Tue Apr 13, 2:04am

Tue Apr 13, 1:04am

Tue Apr 13, 12:05am

Mon Apr 12, 11:04pm

Mon Apr 12, 10:04pm

Mon Apr 12, 9:04pm

Mon Apr 12, 8:04pm

Mon Apr 12, 7:05pm

Mon Apr 12, 6:04pm

Mon Apr 12, 5:04pm

Mon Apr 12, 4:04pm

Mon Apr 12, 3:05pm

Mon Apr 12, 2:04pm

Mon Apr 12, 1:05pm

Mon Apr 12, 12:04pm

Mon Apr 12, 11:04am

Mon Apr 12, 10:04am

Mon Apr 12, 9:04am

Mon Apr 12, 8:04am

Mon Apr 12, 7:04am

Mon Apr 12, 6:04am

Mon Apr 12, 5:04am

Mon Apr 12, 4:04am

Mon Apr 12, 3:04am

Mon Apr 12, 2:04am

Mon Apr 12, 1:05am

Mon Apr 12, 12:04am

Sun Apr 11, 11:04pm

Sun Apr 11, 9:04pm

Sun Apr 11, 8:04pm

Sun Apr 11, 7:04pm

Sun Apr 11, 6:05pm

Sun Apr 11, 5:05pm

Sun Apr 11, 4:04pm

Sun Apr 11, 3:05pm

Sun Apr 11, 2:05pm

Sun Apr 11, 1:05pm

Sun Apr 11, 12:04pm

Sun Apr 11, 11:05am

Sun Apr 11, 10:05am

Sun Apr 11, 9:04am

Sun Apr 11, 8:04am

Sun Apr 11, 7:04am

Sun Apr 11, 6:04am

Sun Apr 11, 5:04am

Sun Apr 11, 4:04am

Sun Apr 11, 3:04am

Sun Apr 11, 2:04am

Sun Apr 11, 1:05am

Sun Apr 11, 12:04am

Sat Apr 10, 11:05pm

Sat Apr 10, 10:04pm

Sat Apr 10, 9:04pm

Sat Apr 10, 8:04pm

Sat Apr 10, 7:05pm

Sat Apr 10, 6:04pm

Sat Apr 10, 5:04pm

Sat Apr 10, 4:04pm

Sat Apr 10, 3:04pm

Sat Apr 10, 2:05pm

Sat Apr 10, 1:04pm

Sat Apr 10, 12:04pm

Sat Apr 10, 11:04am

Sat Apr 10, 10:04am

Sat Apr 10, 9:04am

Sat Apr 10, 8:04am

Sat Apr 10, 7:04am

Sat Apr 10, 6:04am

Sat Apr 10, 5:04am

Sat Apr 10, 4:04am

Sat Apr 10, 3:04am

Sat Apr 10, 2:04am

Sat Apr 10, 1:05am

Sat Apr 10, 12:04am

Fri Apr 9, 11:04pm

Fri Apr 9, 10:05pm

Fri Apr 9, 9:04pm

Fri Apr 9, 8:05pm

Fri Apr 9, 7:05pm

Fri Apr 9, 6:04pm

Fri Apr 9, 5:04pm

Fri Apr 9, 4:05pm

Fri Apr 9, 3:05pm

Fri Apr 9, 2:04pm

Fri Apr 9, 1:04pm

Fri Apr 9, 12:04pm

Fri Apr 9, 11:05am

Meta data:

ID: 2c59799b-a9e1-42f7-a81c-35c292ce58e1
Link: https://api.weather.gov/products/2c59799b-a9e1-42f7-a81c-35c292ce58e1